Time,TemperatureF,DewpointF,PressureIn,WindDirection,WindDirectionDegrees,WindSpeedMPH,WindSpeedGustMPH,Humidity,HourlyPrecipIn,Conditions,Clouds,dailyrainin,SolarRadiationWatts/m^2,SoftwareType,DateUTC
2013-04-04 00:02:00,41.0,27.0,-100.00,ENE,66,9.0,13.0,57,0.00,,,0.06,0.000000,,2013-04-04 05:02:00,
2013-04-04 00:32:00,41.0,26.0,-100.00,East,88,7.0,12.0,55,0.00,,,0.06,0.000000,,2013-04-04 05:32:00,
2013-04-04 00:42:00,41.0,26.0,-100.00,East,88,7.0,12.0,55,0.00,,,0.06,0.000000,,2013-04-04 05:42:00,
2013-04-04 00:53:00,41.0,26.0,-100.00,East,88,7.0,12.0,55,0.00,,,0.06,0.000000,,2013-04-04 05:53:00,
2013-04-04 01:02:00,41.0,26.0,-100.00,East,88,7.0,12.0,55,0.00,,,0.06,0.000000,,2013-04-04 06:02:00,
2013-04-04 01:33:00,41.0,26.0,-100.00,East,85,7.0,12.0,54,0.00,,,0.06,0.000000,,2013-04-04 06:33:00,
2013-04-04 01:43:00,41.0,26.0,-100.00,East,85,7.0,12.0,54,0.00,,,0.06,0.000000,,2013-04-04 06:43:00,
2013-04-04 01:53:00,41.0,26.0,-100.00,East,85,7.0,12.0,54,0.00,,,0.06,0.000000,,2013-04-04 06:53:00,
2013-04-04 02:02:00,41.0,26.0,-100.00,East,85,7.0,12.0,54,0.00,,,0.06,0.000000,,2013-04-04 07:02:00,
2013-04-04 02:32:00,41.0,24.0,-100.00,NE,56,8.0,14.0,51,0.00,,,0.06,0.000000,,2013-04-04 07:32:00,
2013-04-04 02:43:00,41.0,24.0,-100.00,NE,56,8.0,14.0,51,0.00,,,0.06,0.000000,,2013-04-04 07:43:00,
2013-04-04 02:53:00,41.0,24.0,-100.00,NE,56,8.0,14.0,51,0.00,,,0.06,0.000000,,2013-04-04 07:53:00,
2013-04-04 03:02:00,41.0,24.0,-100.00,NE,56,8.0,14.0,51,0.00,,,0.06,0.000000,,2013-04-04 08:02:00,
2013-04-04 03:32:00,41.0,24.0,-100.00,NE,38,8.0,11.0,50,0.00,,,0.06,0.000000,,2013-04-04 08:32:00,
2013-04-04 03:43:00,41.0,24.0,-100.00,NE,38,8.0,11.0,50,0.00,,,0.06,0.000000,,2013-04-04 08:43:00,
2013-04-04 03:52:00,41.0,24.0,-100.00,NE,38,8.0,11.0,50,0.00,,,0.06,0.000000,,2013-04-04 08:52:00,
2013-04-04 04:02:00,41.0,24.0,-100.00,NE,38,8.0,11.0,50,0.00,,,0.06,0.000000,,2013-04-04 09:02:00,
2013-04-04 04:34:00,40.0,23.0,-100.00,NNE,28,6.0,11.0,50,0.00,,,0.06,0.000000,,2013-04-04 09:34:00,
2013-04-04 04:43:00,40.0,23.0,-100.00,NNE,28,6.0,11.0,50,0.00,,,0.06,0.000000,,2013-04-04 09:43:00,
2013-04-04 04:54:00,40.0,23.0,-100.00,NNE,28,6.0,11.0,50,0.00,,,0.06,0.000000,,2013-04-04 09:54:00,
2013-04-04 05:04:00,40.0,23.0,-100.00,NNE,28,6.0,11.0,50,0.00,,,0.06,0.000000,,2013-04-04 10:04:00,
2013-04-04 05:34:00,39.0,24.0,-100.00,NNW,340,3.0,10.0,55,0.00,,,0.06,0.000000,,2013-04-04 10:34:00,
2013-04-04 05:43:00,39.0,24.0,-100.00,NNW,340,3.0,10.0,55,0.00,,,0.06,0.000000,,2013-04-04 10:43:00,
2013-04-04 05:54:00,39.0,24.0,-100.00,NNW,340,3.0,10.0,55,0.00,,,0.06,0.000000,,2013-04-04 10:54:00,
2013-04-04 06:02:00,39.0,24.0,-100.00,NNW,340,3.0,10.0,55,0.00,,,0.06,0.000000,,2013-04-04 11:02:00,
2013-04-04 06:33:00,36.0,33.0,-100.00,NNW,337,7.0,10.0,88,0.02,,,0.08,0.000000,,2013-04-04 11:33:00,
2013-04-04 06:43:00,36.0,33.0,-100.00,NNW,337,7.0,10.0,88,0.02,,,0.08,0.000000,,2013-04-04 11:43:00,
2013-04-04 06:54:00,36.0,33.0,-100.00,NNW,337,7.0,10.0,88,0.02,,,0.08,0.000000,,2013-04-04 11:54:00,
2013-04-04 07:02:00,36.0,33.0,-100.00,NNW,337,7.0,10.0,88,0.02,,,0.08,0.000000,,2013-04-04 12:02:00,
2013-04-04 07:33:00,36.0,32.0,-100.00,NNW,346,8.0,13.0,84,0.00,,,0.08,0.000000,,2013-04-04 12:33:00,
2013-04-04 07:43:00,36.0,32.0,-100.00,NNW,346,8.0,13.0,84,0.00,,,0.08,0.000000,,2013-04-04 12:43:00,
2013-04-04 07:52:00,36.0,32.0,-100.00,NNW,346,8.0,13.0,84,0.00,,,0.08,0.000000,,2013-04-04 12:52:00,
2013-04-04 08:02:00,36.0,32.0,-100.00,NNW,346,8.0,13.0,84,0.00,,,0.08,0.000000,,2013-04-04 13:02:00,
2013-04-04 08:33:00,36.0,32.0,-100.00,North,352,7.0,15.0,85,0.00,,,0.08,9.000000,,2013-04-04 13:33:00,
2013-04-04 08:43:00,36.0,32.0,-100.00,North,352,7.0,15.0,85,0.00,,,0.08,9.000000,,2013-04-04 13:43:00,
2013-04-04 08:53:00,36.0,32.0,-100.00,North,352,7.0,15.0,85,0.00,,,0.08,9.000000,,2013-04-04 13:53:00,
2013-04-04 09:03:00,36.0,32.0,-100.00,North,352,7.0,15.0,85,0.00,,,0.08,9.000000,,2013-04-04 14:03:00,
2013-04-04 09:33:00,35.0,34.0,-100.00,NNW,341,6.0,15.0,95,0.03,,,0.11,30.000000,,2013-04-04 14:33:00,
2013-04-04 09:43:00,35.0,34.0,-100.00,NNW,341,6.0,15.0,95,0.03,,,0.11,30.000000,,2013-04-04 14:43:00,
2013-04-04 09:53:00,35.0,34.0,-100.00,NNW,341,6.0,15.0,95,0.03,,,0.11,30.000000,,2013-04-04 14:53:00,
2013-04-04 10:02:00,35.0,34.0,-100.00,NNW,341,6.0,15.0,95,0.03,,,0.11,30.000000,,2013-04-04 15:02:00,
2013-04-04 10:34:00,35.0,35.0,-100.00,North,349,8.0,13.0,100,0.01,,,0.12,49.000000,,2013-04-04 15:34:00,
2013-04-04 10:43:00,35.0,35.0,-100.00,North,349,8.0,13.0,100,0.01,,,0.12,49.000000,,2013-04-04 15:43:00,
2013-04-04 10:54:00,35.0,35.0,-100.00,North,349,8.0,13.0,100,0.01,,,0.12,49.000000,,2013-04-04 15:54:00,
2013-04-04 11:03:00,35.0,35.0,-100.00,North,349,8.0,13.0,100,0.01,,,0.12,49.000000,,2013-04-04 16:03:00,
2013-04-04 11:33:00,37.0,37.0,-100.00,North,357,5.0,12.0,100,0.00,,,0.12,59.000000,,2013-04-04 16:33:00,
2013-04-04 11:43:00,37.0,37.0,-100.00,North,357,5.0,12.0,100,0.00,,,0.12,59.000000,,2013-04-04 16:43:00,
2013-04-04 11:54:00,37.0,37.0,-100.00,North,357,5.0,12.0,100,0.00,,,0.12,59.000000,,2013-04-04 16:54:00,
2013-04-04 12:03:00,37.0,37.0,-100.00,North,357,5.0,12.0,100,0.00,,,0.12,59.000000,,2013-04-04 17:03:00,
2013-04-04 12:33:00,38.0,38.0,-100.00,North,11,4.0,7.0,99,0.00,,,0.12,99.000000,,2013-04-04 17:33:00,
2013-04-04 12:43:00,38.0,38.0,-100.00,North,11,4.0,7.0,99,0.00,,,0.12,99.000000,,2013-04-04 17:43:00,
2013-04-04 12:53:00,38.0,38.0,-100.00,North,11,4.0,7.0,99,0.00,,,0.12,99.000000,,2013-04-04 17:53:00,
2013-04-04 13:02:00,38.0,38.0,-100.00,North,11,4.0,7.0,99,0.00,,,0.12,99.000000,,2013-04-04 18:02:00,
2013-04-04 13:33:00,39.0,39.0,-100.00,NW,307,6.0,9.0,100,0.01,,,0.13,137.000000,,2013-04-04 18:33:00,
2013-04-04 13:43:00,39.0,39.0,-100.00,NW,307,6.0,9.0,100,0.01,,,0.13,137.000000,,2013-04-04 18:43:00,
2013-04-04 13:52:00,39.0,39.0,-100.00,NW,307,6.0,9.0,100,0.01,,,0.13,137.000000,,2013-04-04 18:52:00,
2013-04-04 14:02:00,39.0,39.0,-100.00,NW,307,6.0,9.0,100,0.01,,,0.13,137.000000,,2013-04-04 19:02:00,
2013-04-04 14:33:00,41.0,41.0,-100.00,NW,305,5.0,9.0,100,0.00,,,0.13,154.000000,,2013-04-04 19:33:00,
2013-04-04 14:43:00,41.0,41.0,-100.00,NW,305,5.0,9.0,100,0.00,,,0.13,154.000000,,2013-04-04 19:43:00,
2013-04-04 14:52:00,41.0,41.0,-100.00,NW,305,5.0,9.0,100,0.00,,,0.13,154.000000,,2013-04-04 19:52:00,
2013-04-04 15:03:00,41.0,41.0,-100.00,NW,305,5.0,9.0,100,0.00,,,0.13,154.000000,,2013-04-04 20:03:00,
2013-04-04 15:33:00,44.0,38.0,-100.00,NNW,328,7.0,13.0,79,0.00,,,0.13,318.000000,,2013-04-04 20:33:00,
2013-04-04 15:42:00,44.0,38.0,-100.00,NNW,328,7.0,13.0,79,0.00,,,0.13,318.000000,,2013-04-04 20:42:00,
2013-04-04 15:53:00,44.0,38.0,-100.00,NNW,328,7.0,13.0,79,0.00,,,0.13,318.000000,,2013-04-04 20:53:00,
2013-04-04 16:02:00,44.0,38.0,-100.00,NNW,328,7.0,13.0,79,0.00,,,0.13,318.000000,,2013-04-04 21:02:00,
2013-04-04 16:33:00,45.0,30.0,-100.00,NNW,347,8.0,15.0,55,0.00,,,0.13,177.000000,,2013-04-04 21:33:00,
2013-04-04 16:43:00,45.0,30.0,-100.00,NNW,347,8.0,15.0,55,0.00,,,0.13,177.000000,,2013-04-04 21:43:00,
2013-04-04 16:53:00,45.0,30.0,-100.00,NNW,347,8.0,15.0,55,0.00,,,0.13,177.000000,,2013-04-04 21:53:00,
2013-04-04 17:03:00,45.0,30.0,-100.00,NNW,347,8.0,15.0,55,0.00,,,0.13,177.000000,,2013-04-04 22:03:00,
2013-04-04 17:33:00,45.0,31.0,-100.00,NNW,341,8.0,15.0,58,0.00,,,0.13,83.000000,,2013-04-04 22:33:00,
2013-04-04 17:43:00,45.0,31.0,-100.00,NNW,341,8.0,15.0,58,0.00,,,0.13,83.000000,,2013-04-04 22:43:00,
2013-04-04 17:53:00,45.0,31.0,-100.00,NNW,341,8.0,15.0,58,0.00,,,0.13,83.000000,,2013-04-04 22:53:00,
2013-04-04 18:03:00,45.0,31.0,-100.00,NNW,341,8.0,15.0,58,0.00,,,0.13,83.000000,,2013-04-04 23:03:00,
2013-04-04 18:32:00,45.0,32.0,-100.00,NNW,341,9.0,14.0,59,0.00,,,0.13,59.000000,,2013-04-04 23:32:00,
2013-04-04 18:42:00,45.0,32.0,-100.00,NNW,341,9.0,14.0,59,0.00,,,0.13,59.000000,,2013-04-04 23:42:00,
2013-04-04 18:52:00,45.0,32.0,-100.00,NNW,341,9.0,14.0,59,0.00,,,0.13,59.000000,,2013-04-04 23:52:00,
2013-04-04 19:02:00,45.0,32.0,-100.00,NNW,341,9.0,14.0,59,0.00,,,0.13,59.000000,,2013-04-05 00:02:00,
2013-04-04 19:33:00,45.0,30.0,-100.00,NNW,339,11.0,17.0,55,0.00,,,0.10,42.000000,,2013-04-05 00:33:00,
2013-04-04 19:43:00,45.0,30.0,-100.00,NNW,339,11.0,17.0,55,0.00,,,0.10,42.000000,,2013-04-05 00:43:00,
2013-04-04 19:52:00,45.0,30.0,-100.00,NNW,339,11.0,17.0,55,0.00,,,0.10,42.000000,,2013-04-05 00:52:00,
2013-04-04 20:02:00,45.0,30.0,-100.00,NNW,339,11.0,17.0,55,0.00,,,0.10,42.000000,,2013-04-05 01:02:00,
2013-04-04 20:32:00,45.0,30.0,-100.00,NNW,332,9.0,17.0,55,0.00,,,0.09,5.000000,,2013-04-05 01:32:00,
2013-04-04 20:42:00,45.0,30.0,-100.00,NNW,332,9.0,17.0,55,0.00,,,0.09,5.000000,,2013-04-05 01:42:00,
2013-04-04 20:53:00,45.0,30.0,-100.00,NNW,332,9.0,17.0,55,0.00,,,0.09,5.000000,,2013-04-05 01:53:00,
2013-04-04 21:03:00,45.0,30.0,-100.00,NNW,332,9.0,17.0,55,0.00,,,0.09,5.000000,,2013-04-05 02:03:00,
2013-04-04 21:32:00,45.0,30.0,-100.00,NW,322,10.0,15.0,55,0.00,,,0.08,0.000000,,2013-04-05 02:32:00,
2013-04-04 21:42:00,45.0,30.0,-100.00,NW,322,10.0,15.0,55,0.00,,,0.08,0.000000,,2013-04-05 02:42:00,
2013-04-04 21:52:00,45.0,30.0,-100.00,NW,322,10.0,15.0,55,0.00,,,0.08,0.000000,,2013-04-05 02:52:00,
2013-04-04 22:02:00,45.0,30.0,-100.00,NW,322,10.0,15.0,55,0.00,,,0.08,0.000000,,2013-04-05 03:02:00,
2013-04-04 22:33:00,46.0,30.0,-100.00,NNW,337,8.0,14.0,54,0.00,,,0.07,0.000000,,2013-04-05 03:33:00,
2013-04-04 22:43:00,46.0,30.0,-100.00,NNW,337,8.0,14.0,54,0.00,,,0.07,0.000000,,2013-04-05 03:43:00,
2013-04-04 22:54:00,46.0,30.0,-100.00,NNW,337,8.0,14.0,54,0.00,,,0.07,0.000000,,2013-04-05 03:54:00,
2013-04-04 23:02:00,46.0,30.0,-100.00,NNW,337,8.0,14.0,54,0.00,,,0.07,0.000000,,2013-04-05 04:02:00,
2013-04-04 23:33:00,46.0,30.0,-100.00,NW,323,10.0,16.0,54,0.00,,,0.07,0.000000,,2013-04-05 04:33:00,
2013-04-04 23:42:00,46.0,30.0,-100.00,NW,323,10.0,16.0,54,0.00,,,0.07,0.000000,,2013-04-05 04:42:00,
2013-04-04 23:52:00,46.0,30.0,-100.00,NW,323,10.0,16.0,54,0.00,,,0.07,0.000000,,2013-04-05 04:52:00,